Back to catalog

COSMOS 2371

AliveNavigationGEO
NORAD 26394·PAYLOAD·🇷🇺 Russia

Launched Jul 4, 2000 from Baikonur Cosmodrome

Loading…

TLE

FreshSource: Space-Track

Epoch: Sep 14, 2026, 20:59 UTC

1 26394U 00036A   26257.87433387 -.00000083  00000-0  00000-0 0  9990
2 26394  14.0409   6.8290 0003385 188.1810 185.0307  1.00280198 95945

Track COSMOS 2371 in real time with AllMySat

Download on the App Store